Weather History for Oshkosh, WI

Change the Weather History Date:

Tuesday, February 18, 2014

  Actual Average Record
Temperature  
Mean Temperature 27 °F -  
Max Temperature 39 °F 31 °F 52 °F (1954)
Min Temperature 15 °F 15 °F -17 °F (2006)
Degree Days  
Heating Degree Days 38    
Moisture  
Dew Point 19 °F    
Average Humidity 78    
Maximum Humidity 88    
Minimum Humidity 58    
Precipitation  
Precipitation 0.00 in - - ()
Sea Level Pressure  
Sea Level Pressure 29.76 in    
Wind  
Wind Speed 7 mph (SW)    
Max Wind Speed 14 mph    
Max Gust Speed -    
Visibility 6 miles    
Events      
Averages and records for this station are not official NWS values.
T = Trace of Precipitation, MM = Missing Value Source: NWS Daily Summary

Daily Weather History Graph

Daily Weather History Graph

Search for Another Location

Airport:

Trip Planner

Search our weather history database for the weather conditions in past years. The results will help you decide how hot, cold, wet, or windy it might be!

Date:

Astronomy

Feb. 18, 2014 Rise Set
Actual Time 6:48 AM CST 5:28 PM CST
Civil Twilight 6:19 AM CST 5:57 PM CST
Nautical Twilight 5:45 AM CST 6:31 PM CST
Astronomical Twilight 5:12 AM CST 7:04 PM CST
Moon 9:31 PM CST (2/18) 8:12 AM CST (2/18)
Length of Visible Light 11h 38m
Length of Day
10h 39m
Waning Gibbous, 87% of the Moon is Illuminated
Feb 18
Waning Gibbous
Feb 22
Last Quarter
Mar 1
New
Mar 8
First Quarter
Mar 16
Full

Hourly Weather History & Observations

Time (CST) Temp. Windchill Dew Point Humidity Pressure Visibility Wind Dir Wind Speed Gust Speed Precip Events Conditions
12:33 AM 18.0 °F 7.7 °F 14.0 °F 84% 29.79 in 4.0 mi WNW 8.1 mph - N/A   Overcast
12:53 AM 17.1 °F 7.6 °F 14.0 °F 88% 29.86 in 4.0 mi West 6.9 mph - N/A   Mostly Cloudy
1:00 AM 16.0 °F 7.4 °F 12.9 °F 88% 29.80 in 4.0 mi West 5.8 mph - N/A   Scattered Clouds
1:11 AM 16.0 °F 10.4 °F 12.9 °F 88% 29.80 in 4.0 mi West 3.5 mph - N/A   Mostly Cloudy
1:43 AM 15.1 °F 7.7 °F 12.0 °F 88% 29.82 in 4.0 mi WSW 4.6 mph - N/A   Mostly Cloudy
1:53 AM 16.0 °F 8.8 °F 12.0 °F 84% 29.88 in 4.0 mi WSW 4.6 mph - N/A   Mostly Cloudy
2:19 AM 16.0 °F 10.4 °F 12.0 °F 84% 29.83 in 4.0 mi WNW 3.5 mph - N/A   Partly Cloudy
2:53 AM 17.1 °F 10.0 °F 12.9 °F 84% 29.90 in 4.0 mi West 4.6 mph - N/A   Mostly Cloudy
3:44 AM 21.9 °F 15.7 °F 17.1 °F 82% 29.84 in 6.0 mi West 4.6 mph - N/A   Haze
3:53 AM 21.9 °F 14.5 °F 17.1 °F 82% 29.90 in 6.0 mi West 5.8 mph - N/A   Haze
4:53 AM 21.9 °F - 17.1 °F 82% 29.88 in 5.0 mi Calm Calm - N/A   Haze
5:30 AM 21.9 °F 15.7 °F 18.0 °F 85% 29.82 in 5.0 mi South 4.6 mph - N/A   Overcast
5:53 AM 21.0 °F 11.4 °F 17.1 °F 85% 29.87 in 5.0 mi South 8.1 mph - N/A   Overcast
6:53 AM 21.9 °F 11.7 °F 18.0 °F 85% 29.87 in 2.5 mi South 9.2 mph - N/A   Overcast
7:49 AM 19.4 °F 7.9 °F 15.8 °F 86% 29.82 in 2.5 mi South 10.4 mph - N/A   Scattered Clouds
7:53 AM 19.0 °F 7.5 °F 16.0 °F 88% 29.88 in 2.5 mi South 10.4 mph - N/A   Partly Cloudy
8:28 AM 21.0 °F 9.9 °F 17.1 °F 85% 29.79 in 3.0 mi SSE 10.4 mph - N/A   Clear
8:53 AM 21.9 °F 10.4 °F 17.1 °F 82% 29.84 in 3.0 mi SSE 11.5 mph - N/A   Haze
9:53 AM 25.0 °F 14.2 °F 19.9 °F 81% 29.81 in 4.0 mi SSE 11.5 mph - N/A   Haze
10:53 AM 30.0 °F 19.5 °F 21.0 °F 69% 29.75 in 5.0 mi SSE 13.8 mph - N/A   Haze
11:53 AM 34.0 °F 25.5 °F 21.9 °F 61% 29.72 in 6.0 mi SSE 11.5 mph - N/A   Haze
12:53 PM 35.1 °F 26.4 °F 23.0 °F 61% 29.68 in 7.0 mi SSE 12.7 mph - N/A   Clear
1:53 PM 37.0 °F 31.6 °F 25.0 °F 62% 29.64 in 10.0 mi South 6.9 mph - N/A   Clear
2:53 PM 39.9 °F 32.5 °F 26.1 °F 58% 29.61 in 10.0 mi South 12.7 mph - N/A   Clear
3:53 PM 39.9 °F 34.5 °F 26.1 °F 58% 29.61 in 10.0 mi SSW 8.1 mph - N/A   Clear
4:53 PM 37.9 °F 32.7 °F 26.1 °F 62% 29.60 in 10.0 mi SSW 6.9 mph - N/A   Clear
5:53 PM 34.0 °F 29.8 °F 25.0 °F 70% 29.61 in 10.0 mi SSW 4.6 mph - N/A   Clear
6:53 PM 37.0 °F - 26.1 °F 65% 29.62 in 10.0 mi Calm Calm - N/A   Scattered Clouds
7:53 PM 30.9 °F - 25.0 °F 79% 29.63 in 10.0 mi Calm Calm - N/A   Clear
8:53 PM 28.0 °F 24.2 °F 23.0 °F 81% 29.64 in 10.0 mi West 3.5 mph - N/A   Clear
9:53 PM 27.0 °F 21.6 °F 23.0 °F 85% 29.65 in 10.0 mi West 4.6 mph - N/A   Clear
10:53 PM 32.0 °F 26.4 °F 24.1 °F 73% 29.65 in 10.0 mi WNW 5.8 mph - N/A   Overcast
11:53 PM 33.1 °F 25.5 °F 24.1 °F 70% 29.65 in 10.0 mi NW 9.2 mph - N/A   Overcast